Location: Arleux
(50.3632°N, 2.8721°E)
Time: 23:21:55
(UTC+00:00)

N. Korean satellite - Pass Details

Date: 15 March 2021
Orbit: 453 x 499 km, 97.2° (Epoch: 12 April)

Event Time Altitude Azimuth Distance (km) Brightness Sun altitude
Rises 04:41:22 0° 22° (NNE) 2,566 10.8 -13.6°
Reaches altitude 10° 04:43:37 10° 33° (NNE) 1,687 10.0 -13.3°
Maximum altitude 04:46:51 29° 96° (E) 922 8.8 -12.8°
Drops below altitude 10° 04:50:04 10° 158° (SSE) 1,692 9.4 -12.3°
Sets 04:52:20 0° 170° (S) 2,574 10.2 -11.9°
